Location: Bergnershof
(48.9468°N, 10.9431°E)
Time: 16:26:45
(UTC+00:00)

Cosmos 2333 Rocket - Pass Details

Date: 03 July 2021
Orbit: 841 x 861 km, 70.8° (Epoch: 28 July)

Event Time Altitude Azimuth Distance (km) Brightness Sun altitude
Rises 00:55:59 0° 334° (NNW) 3,421 6.0 -15.0°
Reaches altitude 10° 00:59:44 10° 359° (N) 2,478 5.7 -14.8°
Maximum altitude 01:02:44 14° 31° (NNE) 2,180 5.6 -14.6°
Drops below altitude 10° 01:05:42 10° 63° (ENE) 2,469 5.4 -14.4°
Sets 01:09:26 0° 87° (E) 3,398 5.8 -14.1°
